Location: Newark
(43.6583°N, 1.6617°E)
Time: 03:08:29
(UTC+00:00)

Transit 4A - Pass Details

Date: 29 August 2019
Orbit: 865 x 980 km, 66.8° (Epoch: 16 September)

Event Time Altitude Azimuth Distance (km) Brightness Sun altitude
Rises 18:58:29 0° 276° (W) 3,681 13.1 -5.0°
Reaches altitude 10° 19:02:30 10° 300° (WNW) 2,730 12.1 -5.6°
Maximum altitude 19:05:49 14° 331° (NNW) 2,418 10.8 -6.2°
Drops below altitude 10° 19:09:06 10° 3° (N) 2,713 10.6 -6.8°
Sets 19:13:06 0° 27° (NNE) 3,641 10.9 -7.5°
